This demonstration page uses our WeatherBlox Daily Observations layout. Learn more.

Left ArrowRight Arrow

44.8408, -93.29828

Hourly Observations for March 11, 2018

Temp ( °F °C ) Dew Point ( °F °C ) Humidity (%) Winds ( mph kmh ) Pressure ( in mb ) Visibility ( mi km ) Precip ( " mm )
12:53 am 00:53 Cloudy with Light Snow 31 -0.6 29 -1.7 92 92 SE 3 6 30.19 1022 4 6 0.01 0.25
1:53 am 01:53 Cloudy 32 0 29 -1.7 88 88 Calm 30.20 1023 10 16 0.00 0.03
3:28 am 03:28 Cloudy 32 0 29 -1.7 88 88 Calm 30.21 1023 10 16 0.00 0.00
3:53 am 03:53 Cloudy with Light Wintry Mix 32 0 29 -1.7 88 88 Calm 30.20 1023 7 11 0.00 0.03
4:27 am 04:27 Cloudy with Light Snow 31 -0.6 29 -1.7 92 92 Calm 30.21 1023 5 8 0.00 0.03
4:44 am 04:44 Cloudy with Light Snow 31 -0.6 30 -1.1 96 96 Calm 30.21 1023 6 10 0.00 0.03
4:53 am 04:53 Cloudy with Light Snow 31 -0.6 30 -1.1 96 96 Calm 30.20 1023 6 10 0.00 0.03
5:53 am 05:53 Cloudy with Light Snow 31 -0.6 30 -1.1 96 96 VRB 3 6 30.21 1023 6 10 0.00 0.03
6:14 am 06:14 Cloudy with Light Snow 31 -0.6 29 -1.7 92 92 ESE 3 6 30.21 1023 7 11 0.00 0.03
6:21 am 06:21 Cloudy with Light Snow 31 -0.6 29 -1.7 92 92 ESE 5 7 30.24 1024 8 13 0.00 0.03
6:53 am 06:53 Cloudy 32 0 29 -1.7 88 88 SE 3 6 30.22 1024 10 16 0.00 0.03
7:53 am 07:53 Cloudy 31 -0.6 29 -1.7 92 92 SE 3 6 30.24 1024 7 11 0.00 0.00
8:53 am 08:53 Cloudy 32 0 29 -1.7 88 88 Calm 30.26 1025 7 11 0.00 0.00
9:53 am 09:53 Cloudy 33 0.6 30 -1.1 89 89 S 5 7 30.26 1025 10 16 0.00 0.00
10:34 am 10:34 Cloudy 34 1.1 31 -0.6 89 89 SW 3 6 30.27 1025 10 16 0.00 0.00
10:53 am 10:53 Cloudy 34 1.1 30 -1.1 85 85 VRB 3 6 30.27 1025 10 16 0.00 0.00
11:10 am 11:10 Cloudy 34 1.1 30 -1.1 85 85 SW 5 7 30.27 1025 10 16 0.00 0.00
11:53 am 11:53 Cloudy 35 1.7 31 -0.6 85 85 SW 5 7 30.27 1025 10 16 0.00 0.00
12:36 pm 12:36 Cloudy 36 2.2 30 -1.1 79 79 W 6 9 30.27 1025 10 16 0.00 0.00
12:53 pm 12:53 Cloudy 36 2.2 31 -0.6 82 82 W 7 11 30.27 1025 9 14 0.00 0.00
1:53 pm 13:53 Cloudy 36 2.2 30 -1.1 79 79 W 7 11 30.27 1025 8 13 0.00 0.00
2:53 pm 14:53 Cloudy 35 1.7 31 -0.6 85 85 W 7 11 30.27 1025 9 14 0.00 0.00
3:32 pm 15:32 Cloudy 36 2.2 31 -0.6 82 82 WNW 7 11 30.27 1025 9 14 0.00 0.00
3:49 pm 15:49 Cloudy 36 2 30 -1 81 81 WNW 7 11 30.27 1025 9 14 0.00 0.00
3:53 pm 15:53 Cloudy 36 2.2 31 -0.6 82 82 NW 7 11 30.27 1025 9 14 0.00 0.00
4:02 pm 16:02 Cloudy 36 2.2 31 -0.6 82 82 WNW 7 11 30.27 1025 9 14 0.00 0.00
4:34 pm 16:34 Cloudy 36 2.2 31 -0.6 82 82 WNW 6 9 30.27 1025 9 14 0.00 0.00
4:53 pm 16:53 Cloudy 36 2.2 31 -0.6 82 82 WNW 6 9 30.26 1025 9 14 0.00 0.00
5:11 pm 17:11 Cloudy 36 2.2 31 -0.6 82 82 WNW 7 11 30.27 1025 8 13 0.00 0.00
5:53 pm 17:53 Cloudy 36 2.2 31 -0.6 82 82 NW 9 15 30.27 1025 8 13 0.00 0.00
6:53 pm 18:53 Cloudy 35 1.7 31 -0.6 85 85 WNW 7 11 30.26 1025 7 11 0.00 0.00
7:23 pm 19:23 Cloudy 35 1.7 32 0 89 89 W 8 13 30.27 1025 8 13 0.00 0.00
7:33 pm 19:33 Cloudy 35 1.7 32 0 89 89 W 9 15 30.27 1025 7 11 0.00 0.00
7:53 pm 19:53 Cloudy with Drizzle 35 1.7 32 0 89 89 W 7 11 30.27 1025 7 11 0.00 0.03
8:04 pm 20:04 Cloudy with Drizzle 34 1.1 32 0 92 92 WNW 8 13 30.27 1025 7 11 0.00 0.03
8:29 pm 20:29 Cloudy 34 1.1 32 0 92 92 NW 9 15 30.27 1025 8 13 0.00 0.03
8:53 pm 20:53 Cloudy 34 1.1 31 -0.6 89 89 WNW 12 19 30.27 1025 9 14 0.00 0.03
9:09 pm 21:09 Cloudy 34 1.1 31 -0.6 89 89 WNW 9 15 30.27 1025 9 14 0.00 0.00
9:49 pm 21:49 Cloudy 34 1 30 -1 87 87 WNW 12 19 30.27 1025 9 14 0.00 0.00
9:53 pm 21:53 Cloudy 34 1.1 30 -1.1 85 85 WNW 12 19 30.28 1025 10 16 0.00 0.00
10:04 pm 22:04 Cloudy 34 1.1 30 -1.1 85 85 WNW 12 19 30.27 1025 10 16 0.00 0.00
10:53 pm 22:53 Cloudy 34 1.1 29 -1.7 82 82 NW 12 19 30.28 1025 10 16 0.00 0.00
11:43 pm 23:43 Mostly Clear 32 0 26 -3.3 79 79 NW 12 19 30.27 1025 10 16 0.00 0.00
11:53 pm 23:53 Mostly Clear 31 -0.6 26 -3.3 82 82 NW 8 13 30.28 1025 10 16 0.00 0.00

Powered by AerisWeather